User: anonymous   Login
Location: Bazinghen
(50.8246°N, 1.6616°E)
Time: 02:38:20
(UTC+00:00)
Language:

NOAA 16 DEB - Orbit

View from above orbital plane
View from above orbital plane
View from above satellite
View from above satellite

Ground track
Ground track

The orbit data is extracted from the following two-line orbital elements,

1 41662U 00055PB  21289.00437492  .00002395  00000-0  11590-2 0  9997
2 41662  98.8941  26.0327 0012847  45.3423 314.8797 14.19409179283842
Epoch (UTC): 16 October 2021 00:06:17
Eccentricity: 0.0012847
inclination: 98.8941°
perigee height: 818 km
apogee height: 836 km
right ascension of ascending node: 26.0327°
argument of perigee: 45.3423°
revolutions per day: 14.19409179
mean anomaly at epoch: 314.8797°
orbit number at epoch: 28384

The dashed part of the orbit path shows where the satellite is in the earth's shadow,  

DLR